Other Public Products
Issued by NWS Grand Forks, ND

Home | Current Version | Previous Version | Graphics & Text | Print | Product List | Glossary On
Versions: 1 2 3 4 5 6 7 8 9 10 11 12 13 14 15 16 17 18 19 20 21 22 23 24 25 26 27 28 29 30 31 32 33 34 35 36 37 38 39 40 41 42 43 44 45 46 47 48 49 50
000
FPUS83 KFGF 030931
OPUFGF
PRAIRIE TO PINES WEATHER ROUNDUP
NATIONAL WEATHER SERVICE EASTERN NORTH DAKOTA/GRAND FORKS ND
400 AM CDT MON AUG 03 2015

 **SATELLITE DATA USED TO AUGMENT SKY COVER AT AUTOMATED STATIONS**
 *****  WEATHER ACROSS EASTERN NORTH DAKOTA  *****

CITY           SKY/WX    TMP DP  RH WIND       PRES   REMARKS
GRAND FORKS    CLEAR     49  47  93 W7        29.88S
GRAND FORKS AF CLEAR     52  48  86 W8        29.89S
GRAND CITY NWS NOT AVBL
BUXTON         NOT AVBL
DEVILS LAKE    CLEAR     54  45  71 W9        29.92S
FARGO          CLEAR     53  47  79 W5        29.90R
WAHPETON ARPT  SUNNY     48  45  87 W5        29.92S
$$

 *****  WEATHER ACROSS CENTRAL AND WESTERN NORTH DAKOTA  *****

CITY           SKY/WX    TMP DP  RH WIND       PRES   REMARKS
JAMESTOWN      CLEAR     54  50  86 W3        29.95S
BISMARCK       CLEAR     53  50  89 CALM      30.00R
MINOT          CLEAR     57  48  72 W8        29.99R
MINOT AFB      CLEAR     52  51  97 W8        29.98S
GARRISON         N/A     52  49  89 NW6       30.00S
WILLISTON      CLEAR     56  49  77 NE5       30.03S
DICKINSON      CLEAR     50  45  83 W5        30.03R
HETTINGER      CLEAR     47  44  90 N3        30.04F
$$

 *****  OTHER OBSERVATIONS NORTHEAST NORTH DAKOTA  *****

CITY           SKY/WX    TMP DP  RH WIND       PRES   REMARKS
WALHALLA       FAIR      54  50  87 MISG      29.90R
LANGDON        FAIR      46  45  93 NW6       29.93S
CAVALIER       FAIR      50  48  93 W7        29.89R
GRAFTON        FAIR      55  50  82 W7        29.89S
CANDO          FAIR      52  48  87 NW7       29.94S
FORT TOTTEN    NOT AVBL
ROLLA          FAIR      52  48  87 NW9       29.96S
RUGBY          NOT AVBL
 ***** THE ABOVE OBSERVATIONS ARE NON NWS ARE NOT QUALITY
        CONTROLLED AND MAY MIS-REPORT RAIN FOR SNOW...
$$

 *****  OTHER OBSERVATIONS SOUTHEAST NORTH DAKOTA *****

CITY           SKY/WX    TMP DP  RH WIND       PRES   REMARKS
COOPERSTOWN    NOT AVBL
VALLEY CITY    FAIR      54  54 100 NW5       29.94S
OAKES            N/A     55  54  94 NW5       29.95S
GWINNER          N/A     55  52  88 W7        29.94S
BUFFALO        NOT AVBL
WYNDMERE         N/A     54  52  94 W3          N/A
 ***** THE ABOVE OBSERVATIONS ARE NON NWS ARE NOT QUALITY
       CONTROLLED AND MAY MIS-REPORT RAIN FOR SNOW...
$$

  *****  WEATHER ACROSS NORTHERN MINNESOTA  *****

CITY           SKY/WX    TMP DP  RH WIND       PRES   REMARKS
FLAG ISLAND    MOCLDY    57  54  88 NW15G23   29.80R
WARROAD        CLOUDY    55  50  82 W6        29.84R
ROSEAU         CLEAR     55  48  76 W7        29.84S
HALLOCK        CLEAR     52  48  87 NW6       29.87S
THF RVR FALLS  CLEAR     52  46  82 W6        29.88R
HALSTAD        NOT AVBL
FOSSTON        CLEAR     46  43  87 CALM      29.89R
BAUDETTE       CLOUDY    58  49  72 W9        29.80R
WASKISH        CLEAR     59  52  77 W13G21    29.82S
CROOKSTON      CLEAR     50  46  87 W3        29.89S
$$
  *****  WEATHER ACROSS CENTRAL AND WEST MINNESOTA  *****

CITY           SKY/WX    TMP DP  RH WIND       PRES   REMARKS
BEMIDJI        PTCLDY    54  46  75 W7        29.85S
PARK RAPIDS    CLEAR     49  46  90 W7        29.88S
WADENA         CLEAR     52  48  87 W3        29.89S
DETROIT LAKES  CLEAR     55  50  82 NW5       29.91S
MOORHEAD       CLEAR     54  48  82 CALM      29.91S
FERGUS FALLS   CLEAR     52  48  87 W3        29.91S
ELBOW LAKE     FAIR      53  50  91 NW6       29.91S
MORRIS MN      CLEAR     54  52  94 W7        29.91S
STAPLES        CLEAR     48  46  93 W5        29.89R
WHEATON        CLEAR     54  52  94 W3        29.93S
$$
  *****  WEATHER ELSEWHERE ACROSS MINNESOTA  *****

CITY           SKY/WX    TMP DP  RH WIND       PRES   REMARKS
DULUTH         CLEAR     55  46  71 W10       29.78F
INTRNTL FALLS  CLOUDY    56  50  80 W5        29.76S
ELY            MOCLDY    52  48  87 CALM      29.74F
CLOQUET        CLEAR     54  45  71 W6        29.80F
BRAINERD       CLEAR     49  47  93 S3        29.86S
HIBBING        CLOUDY    54  45  71 W6        29.79S
ALEXANDRIA     CLEAR     58  51  78 W9        29.92S
SAINT CLOUD    CLEAR     54  50  86 NW6       29.87S
MINNEAPOLIS    CLEAR     63  52  67 W3        29.87S
$$

  *****  WEATHER ACROSS SOUTH DAKOTA  *****

CITY           SKY/WX    TMP DP  RH WIND       PRES   REMARKS
SIOUX FALLS    CLEAR     61  57  87 N5        29.94S
BROOKINGS      CLEAR     57  54  88 CALM      29.97S
WATERTOWN      CLEAR     57  53  86 S3        29.95F
HURON          CLEAR     59  57  93 CALM      29.95R
SISSETON         N/A     55  50  83 NW5       29.92S
ABERDEEN       CLEAR     54  51  90 CALM      29.95S
MITCHELL       CLEAR     58  56  93 CALM      29.95S
PIERRE         CLEAR     58  53  84 E3        29.96S
MOBRIDGE       CLEAR     55  54  96 N3        29.96F
RAPID CITY     CLEAR     58  52  80 N3        30.03F
$$

  *****  SOME WEATHER IN NEARBY STATES *****

CITY           SKY/WX    TMP DP  RH WIND       PRES   REMARKS
GLASGOW MT     CLEAR     58  47  66 SE6       30.02R
GREAT FALLS MT CLEAR     68  44  42 S9        29.94F
CHEYENNE WY    CLOUDY    61  49  64 W5        30.12F
SCOTTSBLUFF NE MOCLDY    64  57  78 E6        29.99F
OMAHA NE       CLEAR     71  64  78 CALM      29.92R
DES MOINES IA  PTCLDY    72  59  63 N6        29.91S
DAVENPORT IA   CLEAR     66  62  87 NW6       29.83R
CHICAGO IL     PTCLDY    68  66  93 W7        29.76R
EAU CLAIRE WI  CLEAR     57  48  72 W6        29.83S
LA CROSSE WI   CLEAR     62  52  69 N3        29.84R
$$

  *****  SOME NATIONAL WEATHER *****

CITY           SKY/WX    TMP DP  RH WIND       PRES   REMARKS
LA GUARDIA NY  CLEAR     77  58  51 SW8       29.84R
RALEIGH NC     PTCLDY    70  67  90 CALM      29.92R
ATLANTA GA     PTCLDY    76  68  76 NE5       29.90R
NEW ORLEANS LA CLEAR     78  74  87 SW7       29.86S
OKLAHOMA CITY  MOCLDY    71  66  84 S5        29.91S
ALBUQUERQUE NM MOCLDY    67  59  75 NE10      30.13F
SALT LAKE CITY LGT RAIN  70  56  61 S17G26    30.01R
LOS ANGELES CA PTCLDY    69  64  84 SE3       29.87S
BOISE ID       PTCLDY    79  48  34 N7        29.84S
SEATTLE WA     MOCLDY    70  51  51 N7        29.89S
$$

*** WEATHER ACROSS MANITOBA...SASKATCHEWAN AND ONTARIO ***
                ***ONTARIO***

CITY           SKY/WX    TMP DP  RH WIND       PRES   REMARKS
GERALDTON      CLOUDY    54  52  94 W5        29.59S
THUNDER BAY    MOCLDY    57  52  82 W6        29.67S
SIOUX LOOKOUT  CLOUDY    54  50  87 NW8       29.70S
TORONTO        MOCLDY    64  61  88 W12       29.66R
BIG TROUT LK   MOCLDY    45  45 100 N7        29.62  FOG
PICKLE LAKE    NOT AVBL
DRYDEN         CLOUDY    54  50  87 W9        29.73S
KENORA         CLOUDY    57  50  77 NW9       29.78R
$$
                *** MANITOBA***

CITY           SKY/WX    TMP DP  RH WIND       PRES   REMARKS
BRANDON        CLEAR     46  46 100 W9        29.94R
DAUPHIN        CLEAR     46  45  93 W8        29.93S
ISLAND LAKE    LGT RAIN  52  52 100 N7        29.73R
PILOT MOUND      N/A     48  45  87 NW5         N/A
THE PAS        CLEAR     54  50  87 VRB2      29.90S
THOMPSON       NOT AVBL
WINNIPEG       CLEAR     48  46  93 W7        29.86F
LYNN LAKE      CLOUDY    48  46  93 W6        29.90R
CHURCHILL      CLOUDY    45  43  93 N9        29.82S
$$
                ***SASKATCHEWAN***

CITY           SKY/WX    TMP DP  RH WIND       PRES   REMARKS
ESTEVAN        CLEAR     46  46 100 W6        30.02R
KINDERSLEY     PTCLDY    55  48  76 SE5       30.00F
LLOYDMINSTER   CLEAR     57  48  72 S8        29.98F
PRINCE ALBERT  CLEAR     48  46  93 W5        29.97S
REGINA         CLEAR     50  48  93 CALM      30.02S
YORKTON        CLEAR     52  48  87 W7        29.97R
N. BATTLEFORD  CLEAR     54  48  82 SE2       30.01F



USA.gov is the U.S. government's official web portal to all federal, state and local government web resources and services.